Akron, CO

8:53 AM MDT on August 23, 2017 (GMT -0600)
Akron-Washington County

Weather History for KAKO - June, 2013

Change the Weather History Date:

Sunday, June 30, 2013

  Actual Average Record
Temperature  
Mean Temperature 69 °F 72 °F  
Max Temperature 78 °F 87 °F 101 °F (1953)
Min Temperature 60 °F 58 °F 46 °F (1951)
Degree Days  
Heating Degree Days 0    
Month to date heating degree days 25  
Cooling Degree Days 4    
Month to date cooling degree days 204  
Growing Degree Days 19 (Base 50)    
Moisture  
Dew Point 48 °F    
Average Humidity 53    
Maximum Humidity 72    
Minimum Humidity 33    
Precipitation  
Precipitation T in 0.07 in 0.71 in (1984)
Month to date precipitation 1.20 2.46  
Year to date precipitation 5.09 8.64  
Sea Level Pressure  
Sea Level Pressure 30.08 in    
Wind  
Wind Speed 10 mph (SE)    
Max Wind Speed 17 mph    
Max Gust Speed 24 mph    
Visibility 10 miles    
Events      
T = Trace of Precipitation, MM = Missing Value Source: NWS Daily Summary

Daily Weather History Graph

Daily Weather History Graph

Search for Another Location

Airport or City:

Trip Planner

Search our weather history database for the weather conditions in past years. The results will help you decide how hot, cold, wet, or windy it might be!

Date:

Astronomy

Jun. 30, 2013 Rise Set
Actual Time 5:26 AM MDT 8:26 PM MDT
Civil Twilight 4:53 AM MDT 8:59 PM MDT
Nautical Twilight 4:12 AM MDT 9:40 PM MDT
Astronomical Twilight 3:23 AM MDT 10:29 PM MDT
Moon 12:27 AM MDT (6/30) 1:43 PM MDT (6/30)
Length of Visible Light 16h 05m
Length of Day
14h 59m
Last Quarter, 45% of the Moon is Illuminated
Jun 30
Last Quarter
Jul 8
New
Jul 15
First Quarter
Jul 22
Full
Jul 29
Last Quarter

Hourly Weather History & Observations

Time (MDT) Temp. Dew Point Humidity Pressure Visibility Wind Dir Wind Speed Gust Speed Precip Events Conditions
12:53 AM 61.0 °F 51.1 °F 70% 30.05 in 10.0 mi East 9.2 mph - N/A   Scattered Clouds
1:53 AM 63.0 °F 51.1 °F 65% 30.04 in 10.0 mi ESE 10.4 mph - N/A   Scattered Clouds
2:53 AM 62.1 °F 50.0 °F 65% 30.04 in 10.0 mi SE 12.7 mph - N/A   Mostly Cloudy
3:53 AM 62.1 °F 48.9 °F 62% 30.04 in 10.0 mi SE 11.5 mph - N/A   Mostly Cloudy
4:53 AM 62.1 °F 48.0 °F 60% 30.05 in 10.0 mi South 9.2 mph - N/A   Partly Cloudy
5:53 AM 62.1 °F 48.0 °F 60% 30.06 in 10.0 mi SSE 8.1 mph - N/A   Mostly Cloudy
6:53 AM 63.0 °F 48.0 °F 58% 30.07 in 10.0 mi SSE 8.1 mph - N/A   Overcast
7:53 AM 66.9 °F 46.0 °F 47% 30.06 in 10.0 mi SE 10.4 mph - N/A   Scattered Clouds
8:53 AM 68.0 °F 45.0 °F 43% 30.09 in 10.0 mi SE 13.8 mph - 0.00 in   Mostly Cloudy
9:53 AM 69.1 °F 48.9 °F 49% 30.09 in 10.0 mi South 11.5 mph - 0.00 in   Mostly Cloudy
10:53 AM 72.0 °F 44.1 °F 37% 30.09 in 10.0 mi SE 13.8 mph 23.0 mph N/A   Mostly Cloudy
11:53 AM 71.1 °F 45.0 °F 39% 30.11 in 10.0 mi SSE 11.5 mph - N/A   Overcast
12:53 PM 72.0 °F 46.9 °F 41% 30.11 in 10.0 mi SSE 10.4 mph - N/A   Partly Cloudy
1:53 PM 73.9 °F 46.0 °F 37% 30.08 in 10.0 mi SE 8.1 mph 17.3 mph N/A   Partly Cloudy
2:53 PM 75.0 °F 46.9 °F 37% 30.08 in 10.0 mi South 6.9 mph - N/A   Partly Cloudy
3:53 PM 75.9 °F 48.0 °F 37% 30.07 in 10.0 mi SSW 8.1 mph - N/A   Scattered Clouds
4:53 PM 75.0 °F 48.0 °F 38% 30.06 in 10.0 mi Variable 3.5 mph - N/A   Partly Cloudy
5:53 PM 75.9 °F 46.9 °F 36% 30.06 in 10.0 mi Variable 3.5 mph - N/A   Clear
6:53 PM 77.0 °F 46.0 °F 33% 30.04 in 10.0 mi ESE 4.6 mph - N/A   Clear
7:53 PM 73.9 °F 46.9 °F 38% 30.06 in 10.0 mi SE 9.2 mph - N/A   Scattered Clouds
8:53 PM 68.0 °F 48.0 °F 49% 30.09 in 10.0 mi ESE 8.1 mph - N/A   Clear
9:53 PM 64.9 °F 48.9 °F 56% 30.12 in 10.0 mi SE 6.9 mph - N/A   Clear
10:53 PM 63.0 °F 48.9 °F 60% 30.12 in 10.0 mi SE 9.2 mph - N/A   Clear
11:53 PM 62.1 °F 48.0 °F 60% 30.13 in 10.0 mi SE 10.4 mph - N/A   Clear